Date String (YYYY-MM-DD hh:mm:ss) UTC,Instrument flags,Ambient pressure (hPa),Sample flow (lpm),Bypass flow (lpm),Sample temperature (°C),Ambient temperature (°C),ASC tube jacket temperature (°C),LED temperature (°C),Box temperature (°C),Sample RH (%),Span deviation,Mass concentration (μg/m³),Mass concentration (μg/m³),Mass concentration (μg/m³)
DateTimeUTC,F1_M11,P_M11,Q1_M11,Q2_M11,T1_M11,T2_M11,T3_M11,T4_M11,T5_M11,U1_M11,ZSPAN_M11,X2_M11,X0_M11,X1_M11
2023-04-29 14:00:00,,0833.4,5.01,0.00,23.7,22.5,00.0,31.9,25.2,17.7,0000.0,0004.47,0012.08,0002.13
2023-04-29 14:01:00,,0833.4,5.00,0.00,23.7,22.5,00.0,31.9,25.2,18.6,0000.0,0004.48,0011.89,0002.13
2023-04-29 14:02:00,,0833.4,5.00,0.00,23.7,22.5,00.0,31.9,25.3,18.7,0000.0,0004.42,0011.85,0002.14
2023-04-29 14:03:00,,0833.6,5.00,0.00,23.7,22.5,00.0,31.9,25.3,18.4,0000.0,0004.36,0011.82,0002.14
2023-04-29 14:04:00,,0833.4,5.00,0.00,23.7,22.5,00.0,31.9,25.3,18.9,0000.0,0004.39,0011.93,0002.16
2023-04-29 14:05:00,,0833.4,5.00,0.00,23.8,22.5,00.0,31.9,25.3,17.4,0000.0,0004.39,0012.45,0002.19
2023-04-29 14:06:00,,0833.5,5.00,0.00,23.8,22.6,00.0,32.0,25.4,19.2,0000.0,0004.40,0012.88,0002.22
2023-04-29 14:07:00,,0833.5,5.00,0.00,23.8,22.6,00.0,32.0,25.4,20.1,0000.0,0004.42,0013.35,0002.26
2023-04-29 14:08:00,,0833.5,5.00,0.00,23.8,22.6,00.0,32.0,25.4,20.8,0000.0,0004.45,0013.53,0002.29
2023-04-29 14:09:00,,0833.6,5.00,0.00,23.8,22.6,00.0,32.0,25.5,20.9,0000.0,0004.44,0013.18,0002.31
2023-04-29 14:10:00,,0833.6,4.99,0.00,23.8,22.6,00.0,32.0,25.4,21.3,0000.0,0004.47,0013.88,0002.34
2023-04-29 14:11:00,,0833.5,5.00,0.00,23.8,22.6,00.0,32.0,25.5,20.7,0000.0,0004.48,0013.82,0002.35
2023-04-29 14:12:00,,0833.6,5.01,0.00,23.8,22.6,00.0,32.1,25.5,20.5,0000.0,0004.43,0013.81,0002.37
2023-04-29 14:13:00,,0833.6,5.01,0.00,23.8,22.6,00.0,32.1,25.5,20.6,0000.0,0004.45,0013.49,0002.40
2023-04-29 14:14:00,,0833.5,5.00,0.00,23.9,22.6,00.0,32.1,25.4,20.5,0000.0,0004.49,0013.42,0002.44
2023-04-29 14:15:00,,0833.6,5.01,0.00,23.9,22.6,00.0,32.1,25.5,20.2,0000.0,0004.46,0013.28,0002.44
2023-04-29 14:16:00,,0833.6,5.00,0.00,23.9,22.6,00.0,32.1,25.5,19.9,0000.0,0004.53,0013.24,0002.47
2023-04-29 14:17:00,,0833.5,5.00,0.00,23.9,22.6,00.0,32.1,25.5,20.1,0000.0,0004.55,0012.54,0002.48
2023-04-29 14:18:00,,0833.5,5.00,0.00,23.9,22.6,00.0,32.1,25.5,20.2,0000.0,0004.53,0012.08,0002.48
2023-04-29 14:19:00,,0833.5,5.00,0.00,23.9,22.6,00.0,32.1,25.5,20.1,0000.0,0004.51,0011.83,0002.47
2023-04-29 14:20:00,,0833.6,5.00,0.00,23.9,22.6,00.0,32.2,25.5,20.3,0000.0,0004.45,0011.69,0002.46
2023-04-29 14:21:00,,0833.6,5.00,0.00,23.9,22.6,00.0,32.2,25.5,20.0,0000.0,0004.44,0011.01,0002.46
2023-04-29 14:22:00,,0833.6,5.00,0.00,23.9,22.6,00.0,32.2,25.5,19.9,0000.0,0004.41,0011.20,0002.47
2023-04-29 14:23:00,,0833.6,5.00,0.00,23.9,22.6,00.0,32.2,25.5,19.9,0000.0,0004.43,0011.16,0002.48
2023-04-29 14:24:00,,0833.6,5.00,0.00,23.9,22.6,00.0,32.2,25.5,19.8,0000.0,0004.38,0011.04,0002.45
2023-04-29 14:25:00,,0833.6,5.01,0.00,23.9,22.6,00.0,32.2,25.5,19.7,0000.0,0004.41,0011.20,0002.44
2023-04-29 14:26:00,,0833.6,5.01,0.00,24.0,22.7,00.0,32.2,25.5,19.7,0000.0,0004.44,0011.68,0002.46
2023-04-29 14:27:00,,0833.6,5.00,0.00,24.0,22.7,00.0,32.2,25.5,19.6,0000.0,0004.45,0011.80,0002.45
2023-04-29 14:28:00,,0833.6,4.99,0.00,24.0,22.7,00.0,32.2,25.5,19.5,0000.0,0004.39,0011.64,0002.43
2023-04-29 14:29:00,,0833.6,5.00,0.00,24.0,22.7,00.0,32.2,25.5,19.4,0000.0,0004.43,0011.90,0002.46
2023-04-29 14:30:00,,0833.6,4.99,0.00,24.0,22.7,00.0,32.2,25.5,19.5,0000.0,0004.40,0012.11,0002.46
2023-04-29 14:31:00,,0833.6,5.00,0.00,24.0,22.7,00.0,32.3,25.5,19.3,0000.0,0004.44,0012.38,0002.47
2023-04-29 14:32:00,,0833.6,4.99,0.00,24.0,22.8,00.0,32.3,25.6,19.0,0000.0,0004.49,0012.68,0002.47
2023-04-29 14:33:00,,0833.7,5.00,0.00,24.0,22.8,00.0,32.3,25.6,19.1,0000.0,0004.49,0012.74,0002.47
2023-04-29 14:34:00,,0833.7,5.00,0.00,24.0,22.8,00.0,32.3,25.5,18.9,0000.0,0004.54,0013.33,0002.48
2023-04-29 14:35:00,,0833.7,5.00,0.00,24.1,22.8,00.0,32.3,25.5,18.7,0000.0,0004.60,0013.28,0002.50
2023-04-29 14:36:00,,0833.7,5.01,0.00,24.1,22.8,00.0,32.3,25.5,18.6,0000.0,0004.56,0013.20,0002.51
2023-04-29 14:37:00,,0833.7,5.00,0.00,24.1,22.8,00.0,32.3,25.5,18.7,0000.0,0004.58,0012.98,0002.48
2023-04-29 14:38:00,,0833.6,5.00,0.00,24.1,22.8,00.0,32.4,25.6,18.5,0000.0,0004.50,0012.72,0002.47
2023-04-29 14:39:00,,0833.7,5.00,0.00,24.1,22.9,00.0,32.4,25.6,18.5,0000.0,0004.44,0012.77,0002.47
2023-04-29 14:40:00,,0833.7,5.00,0.00,24.1,22.9,00.0,32.4,25.7,18.8,0000.0,0004.39,0012.75,0002.44
2023-04-29 14:41:00,,0833.7,4.99,0.00,24.1,22.9,00.0,32.4,25.7,18.8,0000.0,0004.43,0012.53,0002.44
2023-04-29 14:42:00,,0833.6,5.00,0.00,24.1,22.9,00.0,32.4,25.7,17.2,0000.0,0004.40,0012.27,0002.44
2023-04-29 14:43:00,,0833.6,5.01,0.00,24.2,22.9,00.0,32.4,25.7,17.5,0000.0,0004.36,0012.36,0002.42
2023-04-29 14:44:00,,0833.6,5.00,0.00,24.2,22.9,00.0,32.4,25.7,17.8,0000.0,0004.31,0012.31,0002.41
2023-04-29 14:45:00,,0833.6,5.00,0.00,24.2,23.0,00.0,32.4,25.7,17.5,0000.0,0004.26,0011.99,0002.39
2023-04-29 14:46:00,,0833.6,5.00,0.00,24.2,23.0,00.0,32.4,25.7,17.7,0000.0,0004.24,0012.00,0002.34
2023-04-29 14:47:00,,0833.6,4.99,0.00,24.2,23.0,00.0,32.5,25.7,18.4,0000.0,0004.23,0011.91,0002.32
2023-04-29 14:48:00,,0833.6,5.00,0.00,24.2,23.0,00.0,32.5,25.7,17.9,0000.0,0004.16,0011.75,0002.31
2023-04-29 14:49:00,,0833.6,4.99,0.00,24.3,23.0,00.0,32.5,25.8,17.3,0000.0,0004.17,0011.88,0002.31
2023-04-29 14:50:00,,0833.5,5.00,0.00,24.3,23.0,00.0,32.5,25.8,17.6,0000.0,0004.23,0012.07,0002.30
2023-04-29 14:51:00,,0833.6,5.00,0.00,24.3,23.1,00.0,32.5,25.9,17.5,0000.0,0004.28,0012.11,0002.30
2023-04-29 14:52:00,,0833.6,5.01,0.00,24.3,23.1,00.0,32.5,25.9,18.0,0000.0,0004.31,0012.20,0002.29
2023-04-29 14:53:00,,0833.6,5.01,0.00,24.3,23.1,00.0,32.5,25.9,17.9,0000.0,0004.39,0012.63,0002.29
2023-04-29 14:54:00,,0833.5,5.00,0.00,24.3,23.1,00.0,32.6,26.0,17.2,0000.0,0004.40,0012.48,0002.28
2023-04-29 14:55:00,,0833.5,4.98,0.00,24.3,23.1,00.0,32.6,26.0,17.7,0000.0,0004.41,0012.38,0002.26
2023-04-29 14:56:00,,0833.5,5.00,0.00,24.4,23.1,00.0,32.6,25.9,16.0,0000.0,0004.42,0012.15,0002.24
2023-04-29 14:57:00,,0833.5,5.00,0.00,24.4,23.2,00.0,32.6,25.9,15.1,0000.0,0004.44,0012.27,0002.24
2023-04-29 14:58:00,,0833.5,5.01,0.00,24.4,23.2,00.0,32.6,26.0,15.9,0000.0,0004.42,0012.26,0002.22
2023-04-29 14:59:00,,0833.5,5.01,0.00,24.4,23.2,00.0,32.6,26.0,15.4,0000.0,0004.51,0012.61,0002.22
